Wind_Speed
18 18 18 17 17 16 16 15 16 16 16 16 15 15 15 15 15 15 15 16 16 18 18 18 18 19 19 20 20 20 20 20 19 19 19 18 16 16 17 17 16 14 12 10 9 9 9 9 10 11 11 10 10 9 13 13 11 11 10 11 12 11 9 6 6 5 6 4 1 0 1 2 2 5 2 2 6 8 9 12 12 13 17 17 11 9 11 11
18 18 17 17 16 16 15 15 15 15 15 15 14 14 13 13 13 13 13 14 14 15 15 16 16 17 17 17 18 18 18 18 19 20 19 18 17 17 17 17 16 16 13 10 9 9 9 9 10 10 9 9 8 9 12 13 12 13 11 12 13 10 6 5 4 1 3 2 2 2 3 3 3 5 2 2 4 7 8 12 13 12 17 17 11 11 11 10
18 18 17 17 16 16 15 14 14 14 14 14 13 13 12 12 12 12 12 12 13 13 13 13 13 14 15 15 16 16 16 16 17 19 19 18 18 18 18 17 16 16 14 11 9 9 9 9 9 9 8 9 9 10 10 11 12 14 13 13 13 9 5 5 6 6 7 5 4 5 5 4 5 5 4 4 5 8 9 11 13 13 16 13 11 13 12 11
18 18 17 17 16 16 15 15 14 14 14 14 13 12 12 11 11 11 11 11 12 11 12 12 12 13 13 13 13 14 14 12 15 18 17 17 18 18 18 17 17 17 15 12 9 9 9 9 9 8 9 10 11 11 11 11 11 12 14 16 10 7 7 7 7 8 10 8 6 7 6 6 6 5 5 5 7 7 7 9 12 17 16 11 12 13 13 12
18 18 18 17 17 16 16 15 14 14 14 14 13 12 12 11 11 11 10 10 11 10 11 10 11 12 11 12 12 12 10 7 13 16 13 16 17 17 18 17 17 17 15 13 10 9 9 9 9 9 11 11 12 13 12 13 12 11 14 16 12 9 7 7 7 8 10 9 8 7 7 8 6 6 6 7 9 4 3 5 9 17 14 12 15 13 12 11
19 18 18 17 17 16 16 15 15 15 15 14 14 13 12 11 11 10 10 10 10 10 10 10 10 10 11 12 11 12 10 7 13 14 11 14 16 15 16 16 17 17 16 14 11 10 9 11 11 11 12 12 13 13 12 13 13 13 13 14 14 12 10 9 7 9 10 9 9 8 9 9 7 8 7 9 11 6 5 3 8 16 12 12 15 12 11 12
19 18 18 17 17 17 16 15 15 15 15 15 14 13 13 12 11 11 10 10 10 10 9 9 10 10 10 10 11 12 12 12 14 12 10 12 13 14 15 15 16 16 15 14 12 11 10 11 11 11 12 11 13 13 11 13 14 15 13 11 11 12 13 12 11 11 11 10 10 10 10 9 9 9 8 9 11 8 7 5 9 14 11 12 13 10 11 12
19 18 18 17 17 17 16 16 16 16 15 15 14 13 13 12 12 11 11 10 10 10 10 10 9 10 10 10 11 10 11 15 15 13 13 11 11 13 14 14 15 15 15 14 12 11 10 11 12 12 12 11 12 12 11 13 14 17 15 12 11 12 13 13 13 12 11 11 11 11 11 11 11 11 11 10 11 9 7 6 10 12 11 12 11 8 10 11
19 18 18 17 17 17 16 16 16 15 15 14 13 13 12 12 11 11 11 10 11 11 10 11 9 10 10 10 11 7 10 16 14 15 16 14 13 12 13 14 14 14 14 13 13 12 11 11 12 12 11 10 10 11 12 12 12 14 15 14 14 13 13 13 13 12 11 12 11 11 12 11 11 12 13 13 12 10 7 8 8 9 12 12 10 9 10 10
19 18 18 17 17 17 17 16 16 15 14 13 13 12 12 11 10 10 9 9 10 11 11 11 10 11 10 11 10 6 12 16 12 14 16 15 15 14 14 13 13 14 13 13 13 13 12 11 11 12 13 10 10 11 13 13 10 9 11 13 15 15 14 14 13 12 12 12 12 13 13 12 11 12 14 13 13 10 7 9 8 10 14 13 11 12 11 10
19 18 18 17 17 17 17 16 16 15 14 14 13 13 12 11 11 10 9 8 9 10 11 12 12 12 11 12 9 8 15 16 13 15 15 15 16 15 15 13 13 13 13 13 13 13 14 15 14 12 12 11 10 11 13 15 12 10 11 12 15 16 17 17 15 13 12 12 12 12 13 13 12 14 15 12 11 11 9 9 10 11 14 15 13 12 11 10
19 19 18 17 17 17 17 17 16 16 15 15 14 13 13 12 11 10 9 9 9 10 11 12 12 13 13 12 12 13 15 14 14 15 15 16 16 15 15 14 13 14 13 12 12 13 15 15 14 11 8 8 8 9 11 14 14 13 12 13 14 15 17 17 15 13 11 11 10 9 13 15 15 18 18 14 10 11 12 11 13 13 13 15 13 11 11 11
19 19 18 17 17 17 17 17 17 16 16 16 15 14 13 12 11 10 10 10 10 11 11 12 12 13 13 13 14 15 13 13 14 14 15 16 16 15 15 14 14 15 15 14 14 15 15 14 13 13 10 7 7 10 10 9 12 13 12 13 13 14 18 18 15 12 12 12 10 9 12 16 18 20 21 18 12 12 14 12 15 16 15 15 13 12 12 11
19 18 18 17 17 17 17 17 17 16 16 16 15 14 13 12 12 11 11 11 12 12 12 13 13 14 13 13 14 14 13 13 14 14 15 15 16 16 15 15 15 15 15 15 15 15 15 14 14 15 15 11 8 12 12 8 11 11 11 13 13 15 14 14 15 11 11 13 11 10 13 15 14 17 20 17 13 14 14 13 17 18 18 16 13 13 12 11
18 18 18 17 17 17 17 17 16 16 15 15 15 15 14 13 13 13 13 12 13 13 13 13 13 14 13 13 13 13 13 14 13 13 14 14 15 15 15 15 15 15 15 16 16 15 15 15 15 14 13 13 11 10 11 11 12 11 12 13 14 14 9 13 13 12 10 9 8 10 13 13 9 12 17 14 12 14 15 15 16 14 15 13 10 11 11 12
18 18 17 17 16 16 16 16 15 15 15 14 15 15 14 14 14 14 14 14 14 14 14 14 14 14 12 11 13 13 14 13 13 14 13 13 13 13 15 16 16 16 15 15 15 15 16 15 15 12 9 12 13 11 11 13 13 13 14 14 13 14 11 10 11 12 10 7 7 10 13 13 9 10 14 12 13 16 16 17 16 14 15 13 10 11 12 14
17 17 17 16 16 16 15 15 15 14 14 14 15 15 15 16 16 15 15 15 15 15 15 14 13 14 14 13 11 11 15 15 14 14 13 13 12 13 15 16 16 16 15 16 16 15 16 15 14 13 12 13 14 13 14 14 14 14 14 14 12 11 11 8 9 11 11 9 10 10 12 14 10 6 9 10 13 16 17 17 17 17 18 15 13 14 14 15
17 16 16 16 15 15 14 14 14 14 14 14 15 15 16 16 17 17 17 16 16 16 15 15 15 13 14 15 11 10 15 14 13 14 14 13 13 14 14 13 14 16 15 15 15 14 14 14 13 13 14 15 15 16 17 15 13 14 15 15 13 11 12 9 6 9 9 8 10 10 12 15 14 9 9 9 11 15 17 18 17 17 18 17 16 17 16 16
16 16 15 15 14 14 13 14 14 13 14 14 15 16 16 17 18 18 17 18 18 16 11 13 17 12 8 10 13 15 17 14 12 12 13 13 13 13 13 13 14 13 12 12 13 13 13 13 14 15 16 18 19 19 19 15 9 11 12 13 14 13 14 13 7 7 7 8 10 12 13 15 16 17 15 14 12 14 16 18 18 17 18 19 19 19 18 18
15 15 14 14 14 14 13 14 13 13 14 13 14 14 15 17 14 13 17 17 18 18 14 14 17 16 10 6 10 15 17 16 14 12 12 12 12 13 14 14 13 13 13 12 12 12 14 15 16 18 18 18 19 19 20 16 9 9 10 9 12 13 12 12 10 7 6 9 11 12 14 15 16 17 16 16 15 14 16 19 20 19 18 20 21 20 21 23
14 14 14 14 14 13 14 14 13 13 13 13 13 13 14 15 11 11 15 14 14 18 19 20 19 19 16 12 14 14 12 13 13 13 15 13 11 13 15 16 15 16 16 14 11 11 14 17 18 18 17 16 16 17 20 17 10 10 12 11 13 14 14 11 10 9 7 9 12 12 14 16 16 17 17 17 16 15 16 19 22 22 20 21 22 21 24 26
14 14 13 13 13 13 13 13 13 12 12 12 12 13 15 15 13 14 15 12 13 15 17 20 22 22 22 22 22 18 12 12 12 15 18 16 13 14 16 17 18 17 16 15 13 12 15 19 18 17 15 15 14 13 16 15 11 12 14 15 15 15 15 11 8 9 10 10 12 12 14 15 15 16 18 20 20 17 17 19 21 23 23 22 22 22 26 28
13 13 13 13 13 13 13 13 12 12 11 11 12 14 14 13 13 14 15 13 11 11 14 17 19 20 22 24 24 22 20 16 14 16 18 16 14 15 16 17 19 17 17 19 17 15 15 17 18 17 15 14 14 13 13 13 13 15 15 17 17 16 16 14 9 9 10 11 12 13 15 16 14 16 18 20 22 20 18 19 20 22 24 24 23 22 27 29
13 13 12 12 13 12 13 13 12 11 11 12 12 13 12 12 12 12 13 11 7 9 13 15 16 16 17 20 22 23 23 21 18 18 20 18 15 15 17 17 19 19 18 20 20 18 15 11 12 16 15 14 14 14 14 13 15 16 18 18 17 17 17 15 10 8 8 11 15 16 17 20 19 20 21 21 21 22 20 19 19 20 23 25 25 23 24 24
12 12 12 12 13 13 13 12 11 11 11 12 12 12 11 10 11 11 10 7 7 11 12 13 13 13 16 17 18 18 19 23 24 20 21 22 17 16 17 17 19 20 19 19 19 19 18 12 10 12 13 14 14 15 15 15 15 16 18 20 19 18 16 13 12 12 12 14 17 18 16 17 20 22 23 22 22 22 20 19 20 20 21 23 25 25 23 23
12 12 12 13 13 13 13 12 11 11 11 12 12 11 10 10 10 10 7 5 9 12 9 9 9 10 13 13 14 15 15 21 25 23 22 24 20 18 16 17 18 20 18 18 18 18 18 14 12 13 13 13 15 16 16 15 16 16 15 17 19 19 16 15 15 16 15 14 11 12 12 13 16 18 17 18 19 19 19 19 20 20 20 22 24 26 24 24
12 12 13 13 13 13 12 12 11 11 11 12 11 11 10 10 9 7 5 6 9 11 9 9 9 8 10 10 12 12 9 12 19 22 23 24 22 20 17 17 17 18 17 17 18 17 17 14 11 14 15 15 16 17 16 16 16 16 12 11 14 16 16 16 17 17 17 17 12 12 14 16 18 16 13 15 16 16 19 20 19 18 18 19 22 25 26 26
12 12 13 13 13 13 12 12 11 11 11 11 11 11 11 10 9 7 4 4 6 11 10 11 10 9 9 8 12 13 8 9 12 19 24 24 22 21 20 18 17 18 16 16 18 15 16 17 13 13 16 16 17 16 15 16 17 15 9 8 11 13 14 15 16 18 17 18 18 16 15 14 17 18 15 15 16 17 17 16 15 15 17 18 19 21 23 26
13 12 12 12 13 13 12 11 10 11 11 10 11 12 11 10 9 7 4 4 5 9 9 11 11 9 7 7 12 15 12 9 8 12 20 23 23 22 20 19 16 17 17 17 19 14 12 16 16 14 16 16 15 14 13 15 17 15 10 9 11 11 13 14 16 18 17 17 18 18 16 12 12 17 15 13 15 15 13 13 12 15 21 20 18 20 21 24
12 11 12 13 13 12 11 10 11 11 10 11 11 11 11 11 10 6 5 4 6 8 8 9 10 9 8 7 11 14 13 11 9 10 16 20 23 21 18 18 16 17 19 19 21 17 10 12 16 15 16 15 13 13 13 13 14 13 10 10 12 13 15 15 16 18 16 14 16 19 20 16 12 11 9 8 10 10 9 10 13 19 21 18 18 22 22 24
11 11 12 13 12 11 10 10 11 11 11 11 11 11 11 10 8 7 5 5 6 8 8 9 10 10 9 8 11 12 12 13 12 12 17 19 22 23 19 17 18 18 20 21 22 21 16 13 15 16 16 15 14 16 16 15 15 13 11 11 13 14 15 14 16 16 12 10 15 19 20 19 13 7 3 5 9 12 10 9 15 19 17 15 17 19 20 26
10 11 12 12 11 10 10 11 11 11 12 11 11 12 11 8 9 9 5 6 6 6 8 10 10 9 8 7 9 11 13 15 14 14 18 20 22 27 25 21 20 19 21 23 21 21 20 17 14 14 16 17 16 17 17 16 17 16 15 15 14 11 11 11 11 11 10 12 15 15 13 14 13 6 5 5 9 15 15 13 17 18 13 15 16 13 16 28
10 12 12 11 10 10 10 10 10 11 12 11 12 14 9 6 9 9 6 7 6 5 7 9 8 8 8 9 10 12 12 15 16 15 17 20 21 25 26 24 22 20 19 20 20 20 19 19 17 15 16 19 19 18 18 18 19 20 19 18 15 9 7 8 8 9 10 13 16 13 8 10 11 6 6 7 9 15 17 15 18 15 9 11 10 8 12 22
11 11 11 10 10 10 10 9 10 11 12 13 14 12 8 8 8 7 6 5 5 4 6 7 7 8 11 12 11 12 12 13 17 16 16 20 21 22 25 26 24 22 19 17 19 20 17 16 20 20 17 18 21 21 18 15 18 22 21 19 18 14 10 7 6 7 7 9 13 12 9 10 9 6 8 11 11 12 14 16 18 12 8 9 9 9 9 13
11 10 10 10 10 10 9 9 11 12 13 15 14 10 10 10 8 7 7 4 3 2 4 6 7 8 12 13 9 10 12 12 15 18 17 19 21 21 23 25 26 24 21 18 17 18 18 16 17 20 18 17 20 22 19 15 16 19 20 20 21 18 14 10 8 6 6 8 8 11 11 8 4 3 7 9 7 5 7 11 12 8 4 4 6 7 8 11
10 9 9 8 9 9 10 10 11 12 14 16 13 12 12 9 5 3 5 4 2 3 4 6 9 11 12 14 12 11 12 10 13 18 17 18 20 20 20 22 24 26 23 20 15 14 17 15 13 16 18 18 19 19 20 18 15 14 19 22 20 16 16 14 12 9 7 8 8 10 11 7 4 4 4 5 4 3 3 4 4 2 1 1 3 6 8 11
9 8 7 7 8 9 9 11 12 13 15 15 12 12 10 7 5 2 3 4 4 4 5 7 9 10 11 13 14 12 12 11 13 17 17 17 18 19 20 19 21 24 24 21 17 14 13 12 11 15 17 18 17 17 20 22 17 12 14 17 16 16 16 13 10 8 7 8 9 13 14 10 6 5 4 4 4 3 2 3 3 3 2 1 2 6 10 12
8 7 6 6 8 8 9 10 12 14 16 14 12 13 8 6 8 6 6 6 3 3 6 7 6 7 8 11 11 12 12 11 14 16 16 16 15 16 19 18 18 21 22 22 19 14 12 12 12 15 16 17 17 16 19 22 23 19 13 11 13 14 14 14 11 8 7 7 7 12 16 7 2 5 5 5 4 3 3 2 4 4 3 2 1 3 7 10
8 7 6 6 6 8 8 9 11 15 16 12 11 12 10 9 9 9 9 8 5 4 6 7 5 6 7 8 8 8 10 11 13 15 15 14 14 14 16 16 17 18 19 22 21 14 11 12 12 13 15 15 17 19 19 20 23 23 17 13 14 14 12 13 13 11 10 8 6 11 11 1 6 5 7 7 5 3 2 2 4 5 4 1 2 2 0 3
8 7 6 6 6 7 8 9 11 14 13 11 10 8 8 8 8 9 10 9 6 5 6 5 4 6 7 8 9 8 8 10 11 12 13 13 13 12 12 12 13 16 17 20 22 17 12 12 12 11 13 15 17 20 20 20 21 23 22 19 16 16 14 12 11 13 13 7 4 8 5 4 6 5 5 7 7 5 4 2 3 5 5 3 3 5 2 2
9 7 6 6 6 8 8 9 11 13 11 11 9 5 6 8 5 5 8 8 7 7 6 6 6 7 7 8 10 10 8 9 11 11 12 13 11 11 13 13 11 12 15 18 20 18 14 13 14 13 15 17 18 19 19 19 19 21 23 23 20 18 16 12 10 13 15 11 9 8 2 4 5 5 5 6 6 6 6 5 5 4 4 5 8 10 7 6
9 7 6 6 8 9 9 8 8 10 10 10 10 8 9 11 7 4 7 8 7 7 7 8 8 8 8 8 9 9 8 10 12 12 12 13 10 7 12 16 13 10 14 17 18 18 15 13 16 17 16 15 14 15 16 15 15 17 20 21 21 21 19 16 9 8 13 14 15 12 5 5 2 2 4 7 8 9 9 7 9 7 5 6 10 12 13 13
10 7 6 7 9 11 9 7 7 9 9 10 11 10 9 9 7 6 6 6 7 7 8 8 8 8 9 9 8 8 8 10 12 10 9 12 11 6 8 14 15 11 12 15 15 16 16 14 16 18 17 15 11 11 14 14 14 17 17 16 19 20 19 20 14 8 10 9 12 12 5 7 6 5 3 6 9 12 11 8 8 7 7 8 10 11 14 15
9 7 7 7 10 12 9 7 6 7 9 9 8 8 8 7 7 8 7 7 7 8 7 8 8 8 8 8 8 9 8 8 9 9 8 8 9 7 8 13 17 13 11 15 15 13 15 16 16 15 14 14 12 11 15 17 18 20 19 18 19 18 15 17 15 10 9 9 11 12 1 7 7 8 6 4 6 9 10 9 8 6 7 9 9 10 11 10
9 7 7 7 10 12 9 7 6 7 9 8 5 6 7 7 8 10 11 9 7 8 8 7 7 8 8 8 9 11 10 9 9 9 8 7 5 4 8 13 17 14 11 16 15 10 12 16 16 14 12 10 8 8 9 13 16 20 21 18 17 17 16 15 15 13 11 11 15 13 1 6 6 8 5 3 5 8 9 9 10 9 9 11 11 9 8 7
11 7 6 8 10 11 9 8 7 6 7 6 4 5 6 7 7 9 10 10 8 9 9 8 7 7 8 9 9 11 12 12 12 9 9 9 5 4 5 7 14 16 15 18 18 13 12 14 16 17 14 8 5 7 7 6 10 17 20 17 14 17 18 15 14 16 11 8 11 8 6 11 8 7 5 5 7 8 9 9 10 10 10 11 11 9 7 6
10 6 7 9 8 9 8 6 6 6 7 7 6 6 6 6 5 7 8 8 7 8 8 8 8 6 7 9 9 11 11 12 13 11 11 11 9 6 4 4 9 18 18 16 18 18 16 16 18 19 15 10 6 8 9 8 12 17 17 14 12 15 18 17 16 14 10 7 5 1 8 12 11 10 11 11 10 8 9 10 9 10 11 11 9 8 7 6
8 6 10 11 6 5 6 6 7 7 7 6 6 6 5 5 6 7 7 7 6 6 6 8 8 6 6 8 8 10 10 11 12 12 11 11 10 11 6 5 8 16 16 11 10 14 15 14 17 18 14 9 5 5 7 6 7 11 10 8 8 9 11 13 12 9 7 9 6 7 10 11 11 14 17 14 10 8 9 11 10 11 12 10 8 7 6 6
7 4 9 11 7 6 10 10 7 5 5 5 4 4 4 4 6 6 5 6 7 7 6 7 8 7 6 7 8 10 9 9 10 9 8 10 11 11 9 7 9 13 15 12 9 12 13 12 15 15 11 9 7 4 7 6 4 4 4 3 2 2 4 4 3 3 3 4 7 10 11 11 11 17 19 15 11 9 8 9 10 10 9 8 8 6 5 5
8 5 7 10 6 6 9 8 5 5 5 5 5 4 4 3 3 5 5 6 7 8 7 8 9 8 7 6 7 8 7 8 9 8 7 10 11 10 9 8 8 10 15 16 13 14 15 12 11 11 10 13 14 9 8 10 8 5 5 5 4 3 1 2 3 4 6 7 10 13 14 15 15 17 19 16 11 9 8 8 8 8 7 7 7 6 5 5
9 7 7 9 6 6 6 5 5 5 5 5 5 5 3 2 2 3 3 4 5 5 5 7 7 7 7 6 6 5 5 7 10 8 8 10 9 8 8 8 7 8 11 14 14 15 16 14 11 11 13 16 16 14 11 10 9 6 6 10 8 3 3 1 2 6 9 8 7 8 11 15 17 18 18 14 10 9 8 8 8 8 7 8 7 6 6 5
8 6 8 10 6 6 5 5 6 6 7 9 8 5 3 2 2 2 2 2 4 4 4 6 7 7 7 7 7 6 6 7 9 9 9 9 8 8 8 7 7 8 8 10 12 13 14 14 11 11 13 12 12 14 13 11 9 7 6 9 8 4 2 1 3 7 13 13 8 6 9 13 16 16 14 12 11 10 8 8 9 8 7 7 6 6 6 5
Wind_Direction
237 236 237 236 236 236 236 237 239 241 242 243 243 244 244 244 246 247 249 251 252 253 253 253 252 252 251 252 252 252 253 252 251 249 245 243 240 241 240 238 236 238 246 247 246 237 230 224 217 219 215 220 214 203 219 213 203 212 215 224 229 227 235 233 203 203 193 155 90 294 345 217 280 316 293 286 229 227 246 224 222 227 229 233 218 200 197 195
237 237 236 236 236 235 234 234 236 238 239 240 241 241 242 244 245 246 247 248 249 251 251 252 250 250 250 250 250 250 252 250 250 248 245 243 240 240 238 236 233 233 239 242 243 234 227 221 216 218 207 213 213 203 222 220 205 206 212 225 227 226 238 237 230 248 204 220 323 282 304 260 269 311 268 258 245 235 239 225 221 224 229 232 213 197 194 190
237 236 236 236 235 235 234 233 234 235 237 238 238 238 239 241 242 243 245 245 246 247 249 250 249 249 248 247 248 248 249 250 250 247 244 242 239 238 237 235 232 231 234 237 240 231 224 219 216 215 195 196 206 207 216 215 210 208 214 226 226 239 269 261 250 249 248 269 303 285 287 258 271 289 249 259 260 239 234 222 214 222 228 218 194 186 185 187
236 235 235 235 234 234 234 234 234 236 238 238 238 237 237 237 239 240 240 242 243 243 245 245 246 245 245 245 244 245 247 253 253 246 241 241 238 237 236 234 231 230 231 232 232 225 217 213 217 203 187 200 211 212 213 213 214 211 220 226 231 265 270 259 256 249 252 261 268 281 276 255 269 265 238 254 250 232 233 227 220 235 235 204 188 186 186 185
235 235 234 234 234 234 234 234 236 238 239 240 240 239 238 237 238 239 239 241 241 242 243 242 242 241 241 241 240 241 240 244 249 245 240 238 237 237 237 233 229 228 228 227 222 217 209 206 210 194 192 211 216 216 218 217 216 215 227 233 247 272 259 252 260 255 254 254 260 270 261 260 269 251 244 244 242 249 261 225 221 244 241 198 193 188 183 181
237 236 235 235 235 235 234 236 237 239 241 241 242 241 241 241 240 240 241 242 242 243 243 241 239 237 237 235 237 235 216 210 242 244 241 237 237 237 236 232 227 226 226 225 219 213 205 203 203 196 202 214 217 221 221 218 220 227 236 239 248 253 247 257 265 262 262 256 259 260 255 264 263 248 249 235 237 270 287 233 216 240 233 187 186 182 182 185
239 238 238 238 237 236 236 237 239 240 241 242 243 243 243 242 242 241 242 244 245 245 244 242 240 237 236 232 233 232 216 221 238 237 235 235 234 235 233 230 226 224 223 221 217 212 205 202 198 199 209 218 222 226 222 220 225 232 238 240 244 245 245 256 260 260 264 259 257 256 256 260 247 242 248 233 233 256 273 242 211 230 223 184 182 181 189 190
242 241 241 241 240 239 238 238 239 240 241 242 243 244 244 243 243 242 243 245 247 248 247 243 240 237 235 233 231 233 233 235 234 231 233 233 230 231 229 226 223 220 219 216 212 208 202 201 195 198 214 227 227 221 219 223 230 236 238 239 244 247 249 255 258 258 259 259 259 257 255 251 242 244 250 235 231 247 256 228 208 229 228 194 184 183 190 190
246 243 242 243 243 242 241 240 240 240 240 240 240 241 241 241 242 243 242 245 247 248 249 244 242 238 233 234 228 225 245 241 232 232 235 233 230 227 223 220 217 213 212 208 205 200 195 202 201 203 216 229 232 220 220 227 232 237 237 242 248 251 255 257 258 257 255 256 256 255 251 247 244 244 245 231 228 241 231 211 204 223 226 204 190 187 186 186
249 246 244 244 244 243 243 241 240 240 239 238 237 237 238 239 239 241 241 243 247 247 249 246 243 240 232 233 221 207 247 244 235 234 233 233 231 227 222 217 210 206 204 200 200 194 184 197 205 212 216 217 233 224 219 228 233 240 241 245 246 246 252 251 252 250 249 253 248 249 248 244 243 237 236 224 219 228 214 204 204 213 215 200 189 192 188 181
250 248 246 245 244 244 244 242 241 240 240 239 239 239 240 242 242 242 244 243 246 247 248 245 242 242 236 233 215 208 242 242 237 234 230 232 230 228 226 219 211 202 199 197 199 192 184 194 198 207 219 221 235 230 224 229 233 249 250 249 249 249 251 247 250 252 251 253 248 250 250 244 239 229 224 217 214 217 210 200 201 215 209 188 181 191 192 180
250 248 246 245 245 246 246 246 245 243 244 243 242 242 241 244 246 246 247 246 247 247 247 246 243 241 238 236 221 220 237 236 235 234 229 232 229 229 228 222 217 206 199 196 201 199 194 202 197 189 209 223 228 225 233 234 233 246 250 253 258 253 251 247 244 245 245 246 240 244 247 241 234 227 219 218 220 210 208 204 206 216 204 184 177 185 188 180
247 246 245 245 246 247 248 249 248 247 247 246 245 243 243 245 248 249 251 249 248 247 247 245 244 244 242 241 232 229 237 236 235 233 229 232 230 228 226 222 220 211 206 202 207 209 204 208 195 184 200 212 216 221 230 235 233 242 249 253 255 251 248 238 226 231 238 236 230 232 248 244 230 224 221 220 218 208 208 210 221 225 208 190 181 185 190 182
245 245 245 245 246 247 250 250 250 250 248 248 246 243 244 246 249 252 252 250 248 246 246 244 245 247 244 244 240 236 238 237 236 234 230 231 230 228 223 222 221 217 216 212 215 215 209 209 195 192 205 199 210 235 235 237 238 239 245 242 241 252 243 206 202 223 233 233 231 230 248 254 232 214 213 210 207 212 212 214 233 231 207 197 186 188 196 188
244 245 245 245 247 248 250 250 249 249 247 247 245 244 246 248 252 254 253 253 249 246 245 244 244 248 251 253 247 239 237 236 234 234 231 228 230 230 225 223 221 220 220 217 219 215 209 209 198 198 211 202 203 232 234 232 234 229 234 232 226 239 214 168 196 225 225 228 222 217 235 252 239 199 197 203 209 217 215 215 234 229 204 206 202 198 199 193
244 245 245 245 245 246 247 248 248 247 247 247 247 248 249 252 254 254 255 253 250 248 245 244 245 247 252 252 245 240 238 233 230 232 229 226 223 223 226 224 222 222 221 220 220 216 212 208 200 198 212 216 212 222 229 225 225 218 225 236 224 218 208 183 201 219 220 220 208 216 234 247 238 194 194 214 222 220 218 217 227 222 208 211 218 220 211 204
244 244 244 243 242 243 243 245 246 246 248 249 251 252 253 257 258 257 256 253 251 249 243 242 244 245 244 245 249 251 242 231 228 230 226 222 209 207 221 223 222 222 221 222 220 216 215 207 202 203 206 217 218 221 228 224 220 213 215 237 236 217 222 210 184 196 213 222 221 227 239 245 242 196 197 221 222 220 219 217 221 220 214 207 212 229 225 217
243 242 242 242 241 241 242 245 247 248 250 253 255 257 260 262 262 261 258 253 249 245 245 243 239 247 252 241 236 245 241 229 226 228 223 221 211 207 217 217 219 222 220 225 223 215 215 208 206 214 213 215 215 216 223 224 224 218 210 222 233 226 230 236 202 185 197 218 227 227 231 239 243 238 232 232 221 219 218 216 218 219 219 211 210 225 230 225
243 241 241 241 242 243 244 247 249 252 254 257 260 261 264 265 265 266 258 251 245 238 244 246 232 230 249 237 224 231 237 230 225 228 222 218 215 210 206 205 215 219 214 222 225 213 209 206 207 216 216 214 215 215 221 229 242 244 230 220 228 230 225 229 221 183 188 223 233 234 239 241 242 242 244 242 229 219 218 217 217 217 221 219 216 221 227 228
245 244 243 243 245 245 246 249 252 255 257 259 260 260 262 263 266 270 258 247 243 233 227 235 225 214 223 238 226 227 235 236 231 231 225 213 209 206 199 199 206 209 204 209 216 208 206 209 211 217 218 217 219 219 226 240 259 257 253 237 231 239 238 228 219 209 215 239 244 244 247 248 246 244 243 241 231 221 221 221 218 220 224 225 226 224 227 231
246 245 245 246 246 246 248 251 253 256 257 257 256 253 253 254 249 252 254 247 243 235 227 231 228 217 217 216 216 221 231 235 230 229 229 217 202 198 197 197 196 203 206 203 205 201 206 218 220 222 223 223 225 225 231 245 254 237 241 248 238 239 246 231 208 216 232 244 252 252 250 250 248 245 243 240 234 224 226 225 222 224 226 226 229 229 232 235
243 244 245 247 247 247 248 251 253 255 255 253 250 245 246 249 240 241 251 248 242 239 230 232 233 228 226 225 229 231 226 222 218 223 228 220 206 196 197 201 198 205 209 200 201 202 211 226 227 226 227 225 227 227 228 236 237 232 237 245 245 238 238 227 206 229 242 243 252 254 255 255 248 244 243 241 239 234 231 230 226 225 224 226 227 228 237 239
241 243 244 246 247 247 249 251 252 252 251 246 242 240 242 245 241 242 247 246 250 251 236 231 234 233 234 236 238 233 222 213 206 217 225 214 199 193 196 205 204 208 210 201 203 207 217 233 230 225 225 220 223 223 221 227 229 233 235 238 241 237 239 239 227 232 236 240 253 260 262 260 253 249 246 243 241 237 235 231 229 228 224 227 227 227 243 244
242 244 245 247 247 248 249 251 250 248 244 239 237 238 238 239 238 239 242 244 252 249 238 233 232 229 229 232 234 230 225 220 208 216 233 220 195 192 199 208 211 213 214 207 209 219 230 240 224 217 217 213 218 220 219 226 229 231 232 235 239 237 243 245 234 235 243 250 257 259 263 260 251 249 246 243 238 233 233 230 228 229 225 227 229 228 241 247
244 246 247 248 248 247 248 249 246 243 237 234 234 232 232 231 232 235 238 245 231 224 238 239 227 224 226 228 231 226 223 224 213 209 232 229 202 196 206 209 215 218 215 211 214 228 237 235 210 205 210 213 219 224 221 223 230 230 229 233 238 243 252 250 245 256 261 262 256 243 250 257 248 247 242 237 234 228 228 231 229 230 228 228 230 230 233 241
246 248 248 248 248 246 245 244 240 236 232 231 230 225 224 220 226 230 221 238 223 207 220 221 208 223 226 222 222 214 219 233 222 205 220 231 208 196 209 211 214 219 217 214 219 231 233 225 216 214 217 220 223 225 221 218 228 234 232 231 232 240 253 252 251 256 255 267 262 225 240 267 260 252 239 233 233 223 224 233 232 230 231 230 230 232 230 233
248 248 247 246 246 243 241 238 233 229 227 226 220 215 215 211 214 208 197 246 221 186 187 185 186 213 209 203 201 194 206 225 218 204 208 223 212 197 210 213 212 218 215 213 223 228 224 220 221 220 221 224 223 223 218 213 223 233 232 226 225 233 245 246 247 249 251 264 259 223 242 267 267 259 240 233 230 224 229 231 226 227 232 233 232 233 232 234
249 247 246 244 242 239 237 232 224 222 220 218 211 205 204 202 196 174 185 250 178 162 185 188 188 197 191 201 189 179 195 192 199 209 206 216 212 198 209 214 210 217 212 212 224 220 214 221 224 218 218 222 222 220 217 214 219 228 227 222 230 238 244 242 243 245 249 257 254 239 240 254 262 260 249 231 221 226 230 214 208 222 228 230 233 235 234 234
248 246 245 239 236 234 232 226 215 214 211 205 203 198 194 191 176 167 217 256 169 166 193 199 202 196 180 199 183 182 206 196 198 216 205 210 207 195 210 217 212 220 215 215 225 217 207 220 222 217 217 220 220 217 215 213 217 229 239 235 236 240 242 241 243 247 246 248 251 249 245 246 258 260 254 236 221 224 220 197 203 231 235 234 237 239 237 236
246 244 239 233 230 226 222 211 201 201 196 194 196 190 186 178 169 190 224 210 174 174 186 200 205 189 172 189 193 197 208 200 199 197 189 201 202 197 211 217 216 226 220 216 226 228 219 215 216 218 219 218 218 215 213 212 212 226 239 234 235 237 238 240 242 247 250 244 243 248 249 250 257 261 258 241 216 200 189 193 218 239 246 246 243 241 236 237
244 237 231 227 222 214 207 196 192 191 184 184 185 176 172 170 185 225 220 177 174 172 182 193 188 183 187 205 210 203 197 200 204 191 186 194 198 200 207 210 211 220 220 217 224 230 227 219 220 223 220 217 221 222 220 216 215 224 229 229 233 229 227 233 234 236 246 248 243 247 248 245 248 249 216 201 196 193 193 210 236 246 254 253 247 245 230 227
237 228 223 220 211 202 197 188 186 185 177 179 175 163 161 179 215 232 213 198 200 177 179 181 176 189 204 212 206 193 192 200 201 195 193 194 196 200 205 205 202 207 214 214 217 224 225 226 225 222 217 213 215 220 217 211 215 221 222 224 230 224 216 226 230 225 233 244 246 253 251 239 242 230 173 186 205 217 223 231 249 256 260 258 254 249 227 222
226 219 217 213 202 197 194 187 186 182 177 178 168 159 168 215 225 222 213 200 182 158 174 181 187 204 209 216 206 191 197 202 198 199 200 197 200 203 207 209 205 208 217 214 212 217 221 223 217 210 212 208 206 212 210 205 211 216 214 217 224 225 217 221 232 229 231 240 241 243 243 238 243 218 182 211 229 239 243 249 259 260 253 258 253 240 232 225
216 215 214 208 200 199 196 191 187 183 180 176 164 163 200 239 228 216 214 193 162 162 186 193 208 218 219 227 212 190 203 206 196 198 197 196 202 205 208 211 209 213 220 220 217 219 221 220 211 206 206 204 204 210 212 209 212 214 215 220 226 230 231 231 240 237 240 251 235 221 226 243 245 210 202 227 237 246 254 258 261 253 235 240 229 225 235 227
210 212 212 206 205 202 199 197 188 185 182 172 168 181 213 230 226 214 206 173 130 168 193 207 219 222 223 225 216 206 219 213 195 197 200 200 205 207 207 209 210 212 216 219 219 221 229 229 214 209 209 206 207 212 217 221 219 214 214 223 229 230 232 245 268 279 294 287 240 216 228 243 260 244 225 231 226 223 246 256 256 250 256 247 202 204 218 219
207 211 213 210 211 203 200 199 186 185 183 170 178 207 217 224 226 213 206 192 194 212 225 234 219 217 221 212 207 215 220 212 197 201 206 205 207 209 209 210 209 209 214 219 218 216 228 232 212 204 209 209 211 214 215 222 226 213 211 221 228 228 230 244 258 260 271 277 254 240 235 209 198 235 231 222 206 182 203 236 236 222 341 321 175 183 197 207
204 204 207 208 208 203 201 196 186 186 181 173 195 219 221 226 226 248 239 215 233 239 247 248 212 208 225 211 200 203 207 208 204 207 210 209 210 210 209 210 209 209 215 220 223 221 228 239 213 199 207 209 212 218 217 220 227 221 218 223 222 223 231 243 251 237 231 242 245 248 242 215 188 182 184 214 214 202 216 195 178 164 125 93 174 194 200 202
197 187 202 208 201 201 198 191 186 181 175 180 216 230 231 235 230 243 247 229 249 249 245 255 218 205 234 224 203 195 200 209 207 210 213 210 211 210 209 213 210 210 215 218 225 229 231 242 220 202 214 213 206 216 219 218 222 224 229 231 224 226 226 224 231 236 235 240 244 245 242 235 103 117 157 205 205 200 244 202 154 144 125 98 84 208 210 205
181 167 200 211 196 196 190 184 181 174 175 193 228 233 231 238 239 244 241 234 247 242 240 257 241 219 231 233 224 206 211 222 214 215 218 211 211 209 209 217 213 210 214 215 221 227 227 237 223 204 216 212 199 210 217 213 212 219 230 235 233 239 236 224 225 231 236 237 236 240 238 154 85 135 181 204 203 192 226 203 154 149 146 116 6 357 230 219
158 160 198 204 187 188 183 178 174 170 181 208 226 227 222 227 248 256 244 232 227 228 241 252 241 234 232 239 247 232 226 235 222 217 222 216 211 209 209 217 215 212 212 212 218 221 218 229 228 212 208 201 198 207 213 210 204 208 220 226 225 229 237 240 235 238 250 260 255 249 245 118 126 146 169 192 197 183 179 192 180 160 156 176 273 297 317 283
153 169 198 194 176 176 173 167 168 176 197 220 223 226 226 217 225 261 254 240 222 215 233 242 237 246 248 250 249 236 235 246 231 220 223 220 209 203 205 205 203 210 211 209 215 216 212 221 228 221 208 206 213 213 213 216 212 208 214 219 222 225 231 236 227 227 237 244 248 244 181 124 152 124 122 159 160 162 167 176 191 176 156 191 237 266 277 283
158 177 196 189 170 166 167 166 180 196 210 224 215 209 231 231 227 250 255 249 237 226 237 245 245 251 251 252 252 240 240 248 241 230 228 231 230 207 198 201 200 209 211 208 214 216 215 222 225 221 215 217 221 213 209 217 218 217 219 220 224 227 229 237 243 233 230 242 259 249 174 124 181 149 149 168 164 172 171 173 187 177 161 195 216 240 259 269
162 184 197 188 170 166 173 185 205 207 208 227 224 216 237 245 235 245 246 234 232 230 237 241 242 248 244 243 250 245 246 252 248 242 233 238 252 239 194 195 200 208 213 213 215 211 210 221 225 224 227 231 223 206 210 220 219 222 227 224 225 227 230 239 250 259 250 257 278 268 198 144 198 233 219 188 184 192 189 191 203 189 189 207 205 213 234 249
169 193 195 187 178 177 184 198 216 214 218 240 237 223 246 251 227 231 235 231 232 225 232 240 236 236 233 237 245 239 247 256 245 246 242 240 253 244 210 201 199 205 220 216 207 198 202 216 222 222 227 227 219 211 213 216 217 223 227 225 229 232 235 239 239 246 250 234 250 274 297 127 200 241 250 218 195 203 199 200 216 213 203 203 194 198 215 229
167 184 187 185 186 187 198 216 214 207 221 242 233 211 239 250 234 228 217 216 229 224 226 236 231 231 232 241 253 245 246 251 239 241 248 242 247 236 228 220 207 207 226 217 203 194 208 218 220 224 230 222 223 239 227 213 216 222 224 226 230 230 235 244 240 242 254 244 248 264 212 137 213 239 231 199 192 205 202 199 213 214 197 190 189 198 212 226
161 178 189 185 189 196 211 219 201 196 215 228 222 208 222 231 248 255 230 212 222 226 226 235 236 241 244 244 253 249 243 241 236 239 243 235 226 201 208 221 215 217 225 220 213 214 226 231 226 232 246 248 263 289 283 257 237 225 220 222 224 224 233 248 247 244 253 256 259 264 171 166 199 218 207 195 193 200 200 200 210 208 194 190 193 201 214 229
158 182 195 186 194 208 220 220 206 212 211 202 204 208 214 217 231 262 242 209 219 231 225 233 238 240 248 246 249 250 244 237 233 236 240 241 253 249 196 164 219 224 224 226 227 226 233 240 232 236 250 254 269 283 273 266 252 234 223 218 216 222 232 238 237 240 251 249 247 134 143 166 181 197 210 217 213 201 194 195 202 207 204 202 205 212 220 229
164 193 196 185 184 199 206 203 203 208 197 192 209 207 202 212 213 230 230 202 213 233 220 228 235 234 246 250 247 246 244 238 234 236 240 242 257 260 224 182 230 229 218 224 238 231 236 244 234 233 241 234 234 262 247 247 253 234 216 200 202 218 226 226 230 237 249 248 221 147 157 183 205 219 222 225 226 210 194 194 200 212 218 216 217 224 227 230
174 202 196 183 176 189 197 196 192 195 188 180 196 194 185 206 205 209 218 207 212 221 220 233 234 228 243 256 246 239 239 238 231 231 238 234 238 246 232 218 241 236 217 212 223 230 238 247 234 226 223 212 207 223 225 223 220 187 157 148 166 206 200 188 207 202 183 203 182 170 188 207 230 239 233 226 224 212 196 196 201 212 221 221 224 226 221 220
179 191 192 184 190 203 198 198 194 191 191 171 168 187 187 192 206 199 194 201 207 207 218 236 230 223 240 255 239 229 232 231 220 216 235 235 229 241 244 234 242 247 234 228 232 235 238 248 244 231 230 231 228 228 226 222 209 162 141 162 143 100 94 117 109 128 128 143 176 193 211 217 223 236 235 227 221 208 196 195 201 210 217 218 222 215 198 191
184 192 180 170 196 219 189 188 198 191 197 191 185 196 181 151 233 233 199 199 210 213 227 237 231 228 237 237 221 218 233 233 223 228 248 243 232 241 251 246 243 249 245 240 243 246 248 258 264 249 247 248 242 235 230 225 220 198 200 211 190 123 21 344 172 164 152 153 171 191 215 223 224 227 227 220 208 195 195 200 201 207 212 216 223 207 182 168
188 197 174 159 189 229 197 186 197 190 201 202 187 174 169 175 219 272 294 224 211 225 248 247 240 237 238 231 218 220 235 232 226 233 242 238 239 246 248 245 241 241 243 242 247 253 250 252 258 250 246 249 245 238 229 226 229 222 225 231 209 159 86 264 230 185 164 159 159 179 217 234 232 224 215 207 198 188 194 211 213 213 212 217 222 193 161 147
Height
3097 3097 3098 3098 3099 3099 3100 3101 3101 3102 3102 3102 3103 3103 3103 3104 3104 3105 3105 3106 3106 3107 3107 3108 3108 3109 3109 3109 3110 3110 3111 3111 3112 3113 3113 3114 3115 3116 3117 3118 3119 3120 3121 3122 3122 3123 3123 3124 3125 3125 3127 3128 3128 3130 3131 3130 3132 3133 3134 3135 3133 3132 3131 3130 3131 3130 3130 3130 3130 3131 3131 3132 3133 3132 3132 3131 3132 3132 3132 3131 3130 3130 3127 3125 3129 3132 3134 3134
3095 3095 3096 3096 3097 3098 3098 3099 3099 3100 3100 3101 3101 3101 3102 3102 3103 3103 3104 3104 3105 3105 3106 3106 3107 3107 3107 3108 3108 3108 3109 3109 3110 3110 3111 3112 3114 3114 3115 3116 3117 3118 3120 3121 3121 3122 3123 3123 3124 3125 3126 3127 3128 3130 3130 3129 3130 3132 3134 3133 3132 3131 3130 3129 3129 3128 3129 3130 3130 3131 3131 3132 3132 3132 3132 3132 3133 3132 3132 3131 3130 3129 3126 3125 3129 3131 3132 3133
3093 3094 3094 3095 3095 3096 3096 3097 3097 3098 3099 3099 3100 3100 3101 3101 3101 3102 3102 3103 3103 3104 3104 3105 3105 3105 3106 3106 3106 3107 3107 3108 3108 3108 3109 3111 3112 3112 3113 3114 3116 3117 3118 3119 3120 3121 3122 3122 3123 3124 3126 3128 3129 3129 3129 3129 3129 3130 3132 3132 3131 3130 3128 3128 3128 3128 3129 3129 3130 3131 3131 3131 3132 3132 3131 3132 3132 3132 3132 3130 3129 3128 3125 3126 3129 3130 3131 3131
3091 3092 3092 3093 3094 3094 3095 3095 3096 3096 3097 3098 3098 3099 3099 3099 3100 3100 3101 3101 3102 3102 3103 3103 3104 3104 3104 3104 3105 3105 3106 3107 3106 3106 3108 3109 3110 3110 3111 3113 3114 3115 3116 3118 3119 3120 3120 3121 3122 3124 3126 3128 3129 3128 3129 3129 3128 3130 3130 3129 3129 3128 3128 3129 3128 3128 3127 3128 3130 3130 3131 3131 3131 3131 3131 3132 3131 3131 3131 3130 3129 3126 3124 3127 3128 3129 3130 3130
3089 3090 3090 3091 3092 3092 3093 3094 3094 3095 3095 3096 3097 3097 3098 3098 3098 3099 3099 3100 3100 3101 3101 3102 3102 3103 3103 3103 3104 3104 3105 3106 3103 3103 3106 3107 3108 3108 3109 3111 3112 3114 3115 3116 3117 3118 3119 3121 3122 3123 3125 3128 3128 3127 3128 3128 3128 3129 3128 3128 3128 3128 3129 3128 3127 3127 3127 3128 3129 3130 3131 3131 3130 3130 3131 3131 3130 3130 3129 3129 3128 3125 3124 3128 3129 3130 3130 3130
3088 3088 3089 3089 3090 3091 3091 3092 3092 3093 3094 3094 3095 3096 3096 3096 3097 3097 3098 3098 3099 3099 3100 3100 3101 3101 3101 3102 3102 3103 3104 3104 3101 3102 3105 3105 3106 3107 3108 3109 3110 3112 3113 3114 3116 3117 3118 3120 3121 3122 3124 3126 3127 3126 3127 3128 3127 3127 3127 3127 3127 3127 3128 3127 3127 3127 3126 3128 3129 3129 3130 3129 3129 3130 3130 3130 3129 3130 3128 3128 3128 3123 3124 3128 3129 3129 3129 3129
3086 3087 3087 3088 3088 3089 3090 3090 3091 3091 3092 3093 3094 3094 3095 3095 3095 3096 3097 3097 3098 3098 3098 3099 3099 3100 3100 3100 3101 3101 3103 3102 3100 3102 3103 3104 3105 3105 3106 3108 3109 3111 3112 3113 3114 3116 3117 3119 3120 3122 3124 3126 3126 3126 3126 3127 3126 3126 3126 3127 3127 3126 3126 3126 3126 3126 3126 3127 3127 3127 3128 3128 3129 3129 3129 3129 3129 3129 3127 3127 3127 3123 3124 3127 3127 3128 3128 3127
3085 3085 3085 3086 3087 3087 3088 3088 3089 3089 3090 3091 3092 3092 3093 3094 3094 3095 3095 3096 3096 3097 3097 3097 3098 3098 3099 3099 3099 3100 3101 3100 3100 3101 3102 3102 3104 3104 3105 3106 3108 3109 3110 3112 3113 3115 3116 3118 3120 3122 3124 3125 3125 3125 3125 3125 3125 3124 3125 3126 3125 3125 3125 3125 3124 3124 3125 3125 3126 3126 3126 3127 3128 3128 3128 3128 3129 3128 3126 3126 3126 3123 3123 3126 3126 3127 3127 3126
3083 3083 3084 3084 3085 3085 3086 3087 3087 3087 3088 3089 3090 3091 3092 3092 3093 3093 3094 3095 3095 3095 3096 3096 3097 3097 3097 3098 3098 3100 3099 3098 3099 3100 3100 3101 3102 3103 3104 3105 3106 3108 3109 3111 3112 3114 3116 3118 3120 3122 3123 3124 3123 3124 3124 3124 3124 3123 3123 3124 3124 3124 3124 3124 3123 3124 3124 3124 3125 3125 3125 3126 3127 3127 3126 3127 3128 3126 3126 3126 3126 3124 3123 3124 3125 3125 3126 3126
3082 3082 3082 3082 3083 3084 3084 3085 3085 3086 3086 3087 3088 3089 3090 3091 3091 3092 3092 3093 3094 3094 3094 3095 3095 3096 3096 3096 3097 3098 3097 3096 3098 3098 3099 3100 3101 3102 3103 3104 3105 3107 3108 3109 3111 3113 3115 3118 3120 3120 3120 3121 3122 3122 3123 3122 3122 3122 3123 3123 3122 3123 3123 3122 3122 3122 3122 3123 3123 3123 3124 3125 3125 3125 3125 3126 3125 3125 3126 3126 3126 3125 3123 3124 3125 3125 3126 3126
3080 3080 3080 3080 3081 3082 3082 3083 3084 3084 3085 3086 3087 3088 3088 3089 3090 3090 3091 3092 3092 3092 3092 3093 3094 3094 3094 3094 3096 3096 3095 3095 3096 3096 3097 3098 3099 3100 3101 3103 3105 3106 3107 3108 3110 3111 3114 3115 3117 3118 3119 3120 3120 3121 3121 3121 3121 3121 3121 3121 3120 3120 3120 3120 3120 3120 3121 3122 3122 3122 3123 3123 3124 3123 3124 3124 3123 3124 3125 3126 3126 3124 3121 3123 3124 3124 3125 3125
3078 3078 3078 3079 3079 3080 3081 3081 3082 3083 3084 3084 3085 3086 3087 3088 3088 3089 3090 3090 3091 3091 3091 3091 3092 3093 3093 3093 3094 3093 3093 3094 3094 3095 3096 3097 3098 3099 3100 3102 3103 3105 3106 3107 3109 3110 3112 3113 3114 3117 3118 3118 3120 3120 3120 3119 3120 3120 3119 3120 3119 3119 3119 3118 3119 3120 3120 3121 3121 3121 3121 3121 3121 3121 3122 3123 3122 3123 3125 3125 3125 3122 3121 3123 3123 3123 3124 3125
3076 3076 3076 3077 3078 3079 3079 3079 3080 3081 3082 3083 3083 3084 3085 3086 3087 3087 3088 3089 3089 3089 3089 3090 3091 3091 3091 3092 3091 3091 3092 3093 3093 3094 3095 3096 3097 3098 3099 3101 3102 3103 3105 3106 3108 3108 3110 3111 3112 3115 3116 3117 3119 3119 3117 3118 3119 3118 3119 3119 3118 3118 3116 3116 3118 3119 3119 3119 3119 3120 3119 3117 3117 3118 3120 3121 3121 3122 3124 3124 3123 3122 3121 3122 3123 3123 3123 3123
3074 3075 3075 3075 3076 3077 3077 3078 3079 3080 3080 3081 3082 3083 3084 3084 3085 3086 3086 3087 3087 3087 3088 3088 3089 3090 3090 3090 3090 3090 3091 3091 3091 3092 3093 3094 3095 3097 3098 3099 3100 3102 3103 3105 3106 3107 3109 3110 3111 3112 3114 3115 3118 3117 3116 3117 3117 3117 3118 3117 3117 3116 3112 3112 3116 3117 3117 3117 3117 3119 3118 3114 3113 3115 3117 3118 3120 3121 3123 3124 3122 3120 3121 3121 3122 3123 3123 3122
3072 3073 3073 3073 3074 3075 3076 3076 3077 3078 3079 3080 3080 3081 3082 3083 3083 3084 3085 3085 3085 3086 3086 3087 3088 3088 3088 3089 3089 3089 3089 3090 3090 3091 3092 3093 3094 3095 3097 3098 3099 3101 3102 3103 3105 3106 3107 3108 3110 3111 3112 3114 3115 3115 3116 3117 3116 3116 3117 3114 3114 3113 3110 3111 3114 3115 3116 3115 3115 3118 3117 3114 3112 3114 3116 3116 3119 3121 3122 3123 3121 3119 3119 3118 3119 3121 3121 3121
3070 3071 3071 3072 3072 3073 3074 3074 3075 3076 3077 3078 3079 3080 3080 3081 3081 3082 3083 3083 3084 3084 3085 3085 3086 3087 3087 3087 3087 3088 3088 3089 3089 3090 3091 3092 3093 3095 3095 3097 3098 3100 3101 3102 3103 3105 3106 3107 3108 3110 3113 3113 3113 3115 3116 3115 3114 3114 3114 3112 3110 3110 3109 3110 3111 3113 3115 3114 3115 3116 3115 3114 3113 3113 3114 3116 3118 3120 3120 3121 3121 3120 3120 3118 3118 3119 3119 3119
3068 3069 3069 3070 3070 3071 3072 3073 3073 3074 3075 3076 3077 3078 3078 3079 3079 3080 3081 3081 3082 3083 3083 3084 3084 3085 3086 3085 3086 3086 3086 3087 3088 3089 3090 3091 3092 3094 3094 3095 3097 3099 3100 3101 3102 3104 3105 3106 3107 3109 3111 3112 3113 3114 3113 3111 3111 3111 3111 3110 3108 3108 3108 3108 3109 3111 3112 3113 3114 3115 3114 3113 3112 3112 3114 3115 3117 3118 3118 3120 3121 3120 3119 3119 3119 3118 3117 3117
3066 3067 3068 3068 3069 3069 3070 3071 3072 3073 3074 3075 3075 3076 3076 3077 3077 3078 3079 3080 3080 3081 3082 3082 3083 3084 3084 3084 3085 3085 3084 3086 3087 3088 3089 3090 3091 3092 3093 3095 3096 3098 3099 3100 3101 3103 3104 3105 3107 3109 3110 3110 3111 3112 3110 3108 3107 3107 3108 3109 3108 3107 3108 3108 3108 3108 3111 3113 3113 3114 3114 3113 3112 3113 3114 3114 3115 3116 3117 3118 3119 3120 3119 3118 3119 3117 3115 3115
3065 3065 3065 3066 3067 3067 3068 3069 3070 3071 3072 3073 3074 3074 3074 3074 3075 3076 3076 3077 3077 3079 3080 3079 3081 3083 3082 3082 3083 3083 3083 3085 3086 3087 3087 3089 3090 3091 3093 3094 3096 3097 3099 3100 3101 3102 3103 3105 3106 3107 3107 3107 3108 3109 3108 3106 3106 3105 3104 3105 3106 3106 3105 3107 3108 3107 3110 3112 3112 3112 3113 3112 3112 3112 3113 3113 3113 3114 3116 3117 3117 3119 3119 3118 3117 3116 3114 3113
3063 3063 3064 3064 3065 3066 3067 3067 3068 3070 3070 3071 3072 3072 3073 3072 3073 3074 3073 3074 3075 3076 3077 3077 3078 3081 3081 3082 3082 3081 3082 3083 3085 3086 3086 3088 3089 3090 3092 3094 3095 3097 3099 3101 3101 3101 3103 3103 3104 3104 3104 3105 3106 3107 3107 3106 3106 3106 3104 3104 3105 3105 3103 3105 3107 3107 3109 3110 3111 3111 3111 3111 3111 3111 3111 3112 3112 3112 3114 3115 3115 3117 3118 3118 3117 3115 3114 3113
3061 3061 3062 3063 3063 3064 3065 3065 3067 3068 3069 3070 3070 3071 3071 3070 3072 3072 3071 3072 3073 3073 3074 3075 3076 3078 3079 3080 3079 3080 3082 3082 3084 3085 3085 3087 3088 3090 3091 3093 3095 3096 3097 3100 3101 3101 3101 3101 3101 3102 3103 3104 3105 3106 3106 3106 3106 3107 3107 3106 3105 3105 3104 3104 3105 3107 3108 3109 3109 3109 3109 3109 3109 3109 3110 3110 3110 3110 3111 3113 3113 3114 3116 3116 3117 3116 3113 3111
3059 3060 3061 3061 3062 3063 3063 3064 3065 3066 3067 3068 3068 3069 3069 3069 3070 3070 3069 3070 3070 3071 3072 3072 3074 3075 3076 3076 3077 3079 3081 3082 3084 3084 3084 3086 3087 3089 3091 3092 3094 3095 3096 3099 3099 3099 3100 3099 3099 3100 3102 3103 3103 3104 3105 3105 3106 3107 3107 3106 3104 3104 3103 3102 3103 3106 3107 3108 3108 3108 3107 3107 3107 3107 3108 3108 3108 3108 3109 3111 3111 3112 3114 3114 3116 3115 3111 3110
3058 3058 3059 3060 3060 3061 3062 3062 3063 3064 3065 3066 3067 3067 3067 3068 3068 3068 3068 3069 3069 3069 3070 3070 3071 3072 3074 3074 3075 3077 3079 3081 3084 3083 3082 3085 3087 3089 3091 3092 3093 3095 3096 3097 3097 3097 3097 3096 3097 3099 3100 3101 3102 3102 3103 3104 3105 3106 3106 3105 3103 3103 3102 3100 3102 3105 3106 3106 3106 3106 3105 3105 3105 3105 3105 3105 3106 3106 3107 3108 3109 3109 3111 3112 3113 3114 3109 3108
3056 3057 3058 3058 3059 3060 3060 3061 3061 3063 3064 3064 3065 3065 3066 3066 3066 3067 3067 3067 3068 3068 3067 3068 3069 3070 3071 3072 3072 3074 3076 3079 3082 3082 3080 3083 3086 3088 3090 3091 3092 3094 3094 3094 3096 3095 3095 3094 3095 3097 3098 3099 3100 3101 3102 3103 3103 3104 3104 3103 3102 3101 3100 3100 3102 3104 3105 3105 3104 3105 3104 3102 3102 3102 3102 3102 3103 3104 3105 3106 3107 3107 3108 3109 3110 3112 3109 3105
3054 3055 3056 3056 3057 3058 3058 3059 3060 3061 3062 3063 3063 3064 3064 3065 3065 3066 3066 3066 3067 3066 3065 3066 3067 3068 3068 3069 3070 3072 3074 3075 3078 3081 3079 3080 3085 3087 3089 3090 3091 3092 3092 3093 3094 3094 3094 3093 3093 3096 3097 3097 3099 3100 3100 3101 3102 3101 3101 3102 3101 3101 3100 3100 3102 3103 3103 3102 3100 3101 3100 3096 3097 3097 3097 3098 3099 3100 3102 3103 3104 3105 3106 3107 3107 3109 3109 3105
3053 3054 3054 3055 3055 3056 3057 3057 3058 3060 3061 3061 3062 3062 3063 3064 3064 3064 3065 3065 3064 3063 3064 3064 3066 3066 3066 3067 3069 3071 3073 3072 3073 3078 3078 3078 3083 3086 3088 3089 3088 3089 3091 3092 3093 3092 3092 3091 3092 3095 3096 3096 3098 3098 3098 3100 3100 3099 3099 3099 3100 3101 3101 3101 3102 3102 3101 3099 3097 3099 3098 3094 3093 3093 3094 3096 3096 3097 3100 3101 3102 3103 3104 3105 3105 3106 3108 3105
3051 3052 3052 3053 3053 3054 3055 3056 3057 3058 3059 3060 3060 3061 3062 3062 3063 3064 3065 3064 3061 3061 3063 3064 3065 3065 3065 3066 3067 3070 3072 3070 3071 3075 3076 3076 3080 3084 3085 3086 3087 3087 3089 3091 3090 3089 3090 3090 3091 3093 3094 3095 3095 3096 3096 3098 3098 3097 3097 3098 3099 3100 3101 3100 3101 3100 3099 3098 3096 3097 3098 3095 3091 3091 3092 3094 3095 3096 3097 3098 3099 3101 3102 3103 3104 3104 3106 3104
3049 3050 3051 3051 3051 3052 3053 3054 3055 3056 3057 3058 3059 3060 3060 3061 3062 3063 3064 3063 3059 3060 3062 3062 3063 3063 3064 3065 3066 3068 3069 3069 3070 3072 3074 3075 3078 3081 3082 3083 3086 3086 3087 3088 3087 3086 3088 3089 3090 3091 3092 3093 3093 3093 3095 3096 3096 3096 3096 3097 3098 3099 3099 3099 3100 3098 3098 3098 3093 3093 3095 3093 3089 3089 3090 3091 3093 3094 3094 3095 3097 3099 3099 3100 3101 3102 3104 3103
3047 3048 3049 3049 3050 3050 3051 3053 3054 3055 3056 3057 3058 3059 3059 3061 3062 3062 3064 3062 3058 3059 3061 3061 3062 3062 3063 3064 3065 3067 3067 3069 3071 3070 3071 3073 3075 3079 3081 3082 3084 3085 3085 3086 3085 3085 3086 3087 3088 3089 3090 3090 3091 3092 3093 3094 3095 3095 3095 3096 3097 3098 3098 3098 3098 3097 3097 3094 3091 3091 3093 3090 3087 3087 3088 3089 3090 3091 3092 3093 3095 3096 3096 3096 3098 3099 3101 3100
3046 3047 3047 3047 3048 3049 3050 3052 3053 3053 3055 3056 3057 3058 3059 3060 3061 3062 3063 3060 3057 3058 3059 3060 3061 3062 3063 3064 3065 3065 3066 3068 3069 3068 3070 3072 3074 3077 3079 3080 3082 3083 3084 3084 3084 3084 3084 3085 3086 3087 3088 3089 3090 3091 3092 3092 3094 3094 3095 3095 3096 3096 3097 3097 3096 3096 3094 3090 3088 3090 3091 3089 3085 3085 3087 3088 3089 3090 3091 3093 3093 3093 3093 3094 3096 3096 3099 3098
3044 3045 3045 3046 3047 3048 3049 3050 3051 3052 3054 3055 3056 3057 3058 3059 3060 3060 3059 3057 3056 3057 3058 3059 3060 3061 3063 3064 3064 3064 3065 3067 3067 3067 3070 3071 3073 3075 3076 3078 3079 3080 3081 3081 3082 3082 3082 3083 3084 3085 3086 3088 3089 3090 3090 3091 3092 3093 3093 3094 3094 3093 3094 3094 3094 3095 3092 3086 3086 3087 3087 3087 3085 3084 3087 3088 3088 3089 3090 3091 3090 3090 3091 3092 3092 3092 3094 3094
3042 3043 3044 3045 3046 3047 3048 3049 3050 3052 3053 3054 3056 3057 3058 3060 3060 3058 3055 3055 3056 3056 3057 3059 3060 3061 3062 3063 3063 3063 3064 3066 3066 3066 3068 3069 3070 3071 3073 3074 3076 3076 3076 3076 3079 3080 3080 3081 3082 3083 3083 3085 3087 3088 3088 3089 3091 3091 3092 3093 3091 3088 3090 3091 3089 3089 3087 3084 3084 3085 3084 3084 3084 3084 3085 3087 3087 3088 3088 3089 3088 3088 3089 3089 3088 3089 3089 3089
3041 3042 3043 3044 3045 3046 3047 3048 3050 3051 3052 3054 3055 3056 3058 3059 3057 3055 3054 3054 3054 3055 3056 3058 3059 3060 3061 3061 3061 3062 3063 3063 3064 3065 3066 3068 3069 3069 3070 3072 3073 3074 3072 3073 3076 3077 3077 3079 3080 3081 3081 3082 3084 3085 3085 3086 3087 3088 3088 3089 3088 3085 3088 3090 3087 3084 3082 3081 3082 3083 3083 3082 3083 3083 3084 3085 3086 3086 3086 3087 3087 3087 3087 3087 3086 3086 3086 3086
3040 3041 3042 3043 3044 3045 3046 3048 3049 3050 3052 3053 3055 3056 3058 3058 3055 3053 3054 3054 3054 3055 3056 3057 3058 3059 3059 3058 3058 3059 3061 3061 3062 3064 3065 3066 3067 3067 3068 3070 3071 3072 3072 3073 3074 3074 3074 3075 3076 3077 3078 3079 3080 3081 3082 3083 3084 3085 3086 3087 3085 3083 3085 3086 3084 3081 3080 3080 3081 3082 3082 3081 3081 3082 3082 3083 3084 3085 3085 3085 3085 3085 3085 3085 3085 3085 3085 3085
3039 3040 3041 3042 3043 3044 3045 3047 3048 3050 3051 3052 3054 3056 3057 3056 3053 3053 3053 3053 3054 3056 3057 3057 3058 3058 3057 3057 3057 3058 3059 3059 3060 3062 3063 3063 3064 3064 3065 3067 3068 3070 3071 3071 3071 3072 3072 3071 3073 3075 3076 3077 3078 3079 3080 3081 3081 3082 3084 3084 3082 3082 3083 3083 3082 3081 3081 3082 3080 3079 3080 3079 3080 3081 3082 3083 3083 3084 3084 3084 3084 3084 3084 3084 3084 3084 3085 3084
3038 3039 3040 3041 3042 3043 3044 3046 3047 3049 3050 3052 3054 3055 3055 3054 3053 3053 3052 3053 3054 3055 3056 3056 3056 3056 3055 3054 3056 3057 3057 3057 3059 3060 3060 3061 3061 3062 3063 3064 3066 3068 3069 3068 3069 3070 3070 3070 3071 3073 3074 3075 3076 3077 3079 3079 3079 3079 3081 3080 3080 3082 3083 3082 3081 3081 3083 3083 3080 3077 3077 3077 3079 3081 3082 3082 3083 3084 3084 3083 3084 3084 3084 3084 3084 3084 3084 3084
3037 3038 3039 3040 3041 3042 3043 3044 3046 3048 3049 3051 3053 3054 3053 3053 3053 3052 3052 3053 3054 3054 3055 3055 3053 3054 3053 3051 3052 3055 3056 3057 3058 3058 3058 3058 3059 3059 3061 3062 3064 3065 3067 3068 3068 3069 3069 3069 3070 3071 3072 3073 3075 3076 3077 3078 3078 3078 3078 3078 3080 3082 3082 3082 3080 3079 3081 3080 3077 3074 3074 3074 3076 3079 3082 3082 3082 3083 3083 3084 3084 3084 3085 3085 3084 3084 3083 3084
3037 3038 3039 3040 3040 3041 3043 3044 3045 3047 3048 3051 3052 3052 3052 3052 3052 3051 3051 3052 3053 3054 3055 3054 3052 3053 3052 3050 3050 3052 3054 3056 3057 3056 3056 3057 3057 3057 3059 3060 3061 3063 3065 3067 3067 3068 3069 3068 3068 3070 3071 3071 3073 3075 3075 3075 3076 3077 3077 3078 3078 3078 3078 3080 3080 3079 3078 3077 3074 3072 3071 3072 3074 3077 3081 3082 3081 3082 3083 3083 3083 3084 3085 3084 3084 3084 3084 3084
3036 3038 3039 3039 3040 3041 3042 3043 3045 3046 3048 3050 3052 3051 3051 3051 3050 3050 3050 3051 3053 3054 3054 3054 3053 3053 3053 3052 3051 3052 3053 3054 3055 3055 3056 3056 3056 3056 3058 3059 3060 3062 3064 3065 3066 3067 3068 3068 3067 3068 3069 3069 3071 3072 3071 3072 3074 3076 3077 3077 3077 3076 3076 3076 3076 3076 3075 3073 3073 3070 3068 3072 3076 3078 3079 3081 3081 3082 3082 3083 3083 3084 3084 3084 3084 3084 3085 3084
3036 3038 3038 3039 3040 3041 3042 3043 3044 3046 3048 3050 3051 3050 3050 3050 3050 3049 3049 3050 3052 3053 3053 3054 3054 3054 3054 3053 3052 3052 3053 3053 3054 3055 3055 3055 3056 3056 3057 3058 3059 3061 3062 3064 3065 3066 3068 3068 3066 3066 3067 3068 3068 3068 3068 3069 3070 3073 3074 3074 3075 3075 3074 3074 3074 3074 3073 3071 3070 3069 3069 3075 3079 3079 3079 3080 3081 3081 3082 3082 3082 3082 3083 3083 3083 3084 3085 3084
3036 3037 3038 3039 3040 3041 3042 3043 3044 3046 3048 3049 3049 3049 3048 3049 3049 3049 3048 3049 3050 3051 3052 3052 3053 3053 3053 3053 3053 3052 3053 3053 3053 3054 3054 3054 3055 3056 3056 3057 3058 3060 3062 3062 3063 3064 3066 3067 3066 3066 3066 3065 3064 3065 3066 3067 3067 3069 3070 3071 3072 3072 3073 3072 3071 3072 3073 3073 3071 3070 3073 3079 3079 3079 3080 3080 3080 3081 3081 3082 3082 3082 3081 3081 3082 3084 3083 3083
3036 3037 3038 3038 3040 3041 3042 3043 3044 3045 3047 3047 3047 3047 3046 3046 3048 3049 3048 3048 3049 3050 3051 3051 3052 3052 3052 3052 3052 3052 3053 3053 3052 3053 3053 3052 3052 3053 3053 3055 3058 3059 3060 3061 3062 3063 3064 3065 3065 3065 3064 3064 3063 3064 3065 3065 3066 3067 3067 3068 3070 3070 3071 3070 3068 3070 3071 3072 3071 3068 3070 3077 3078 3078 3079 3078 3078 3079 3079 3080 3081 3081 3080 3080 3081 3083 3083 3083
3036 3037 3037 3038 3040 3041 3041 3043 3044 3044 3045 3045 3044 3045 3045 3046 3047 3048 3048 3048 3049 3050 3050 3051 3051 3051 3052 3052 3052 3052 3053 3052 3051 3052 3052 3052 3051 3051 3053 3054 3056 3058 3059 3060 3061 3062 3063 3064 3063 3063 3063 3063 3063 3063 3064 3064 3066 3066 3065 3066 3067 3067 3068 3068 3068 3071 3070 3070 3072 3068 3067 3074 3078 3077 3077 3076 3076 3077 3077 3078 3079 3079 3079 3079 3080 3081 3083 3083
3036 3037 3037 3038 3039 3040 3040 3042 3044 3044 3045 3043 3043 3045 3045 3045 3046 3047 3047 3048 3049 3049 3050 3050 3050 3051 3051 3051 3051 3052 3052 3052 3051 3052 3052 3052 3050 3051 3053 3054 3055 3057 3058 3058 3059 3060 3061 3062 3062 3061 3060 3060 3062 3063 3062 3062 3064 3064 3064 3065 3065 3065 3067 3067 3069 3072 3070 3069 3073 3071 3068 3073 3076 3075 3075 3076 3075 3076 3076 3077 3077 3078 3079 3079 3080 3080 3081 3082
3035 3036 3036 3037 3039 3039 3040 3041 3042 3043 3044 3043 3042 3044 3044 3044 3044 3044 3046 3047 3047 3048 3049 3049 3050 3050 3050 3050 3051 3051 3051 3051 3051 3052 3052 3052 3051 3051 3053 3054 3054 3054 3054 3056 3058 3058 3059 3061 3060 3059 3057 3057 3059 3061 3060 3059 3061 3062 3062 3063 3064 3065 3066 3067 3067 3069 3067 3067 3071 3070 3069 3073 3075 3074 3075 3076 3075 3075 3076 3076 3077 3078 3079 3079 3080 3080 3081 3082
3034 3036 3036 3037 3038 3039 3039 3040 3040 3042 3043 3042 3042 3043 3044 3044 3043 3042 3043 3045 3046 3047 3047 3048 3048 3048 3049 3049 3050 3050 3050 3051 3051 3051 3051 3051 3051 3050 3051 3053 3053 3052 3052 3055 3057 3057 3058 3059 3058 3058 3057 3057 3058 3059 3059 3059 3060 3060 3061 3062 3063 3064 3065 3066 3066 3066 3066 3067 3069 3069 3070 3073 3075 3075 3075 3075 3074 3074 3075 3076 3077 3077 3078 3079 3080 3080 3081 3081
3034 3036 3036 3037 3038 3038 3038 3039 3041 3041 3041 3041 3042 3042 3043 3043 3044 3043 3042 3043 3045 3045 3046 3046 3047 3047 3048 3048 3049 3049 3049 3050 3050 3051 3051 3051 3050 3049 3050 3052 3051 3051 3052 3055 3056 3056 3057 3057 3057 3058 3058 3058 3058 3058 3058 3059 3060 3059 3060 3061 3062 3063 3065 3066 3066 3065 3066 3067 3068 3070 3071 3074 3075 3074 3074 3073 3073 3074 3075 3076 3077 3077 3078 3078 3079 3080 3080 3081
3033 3035 3036 3036 3037 3038 3038 3039 3040 3040 3040 3040 3041 3041 3042 3042 3043 3043 3042 3043 3044 3044 3045 3045 3046 3047 3048 3048 3048 3048 3048 3049 3049 3049 3050 3051 3050 3049 3049 3050 3050 3050 3053 3055 3055 3056 3056 3056 3057 3057 3057 3058 3059 3058 3057 3059 3060 3060 3060 3061 3062 3063 3064 3065 3065 3065 3066 3067 3067 3070 3073 3074 3074 3072 3072 3072 3073 3074 3075 3075 3076 3077 3077 3078 3079 3079 3080 3081
3033 3034 3035 3035 3036 3037 3038 3038 3038 3039 3039 3040 3040 3041 3041 3042 3042 3042 3042 3043 3044 3044 3045 3045 3045 3046 3047 3047 3047 3048 3048 3048 3049 3049 3049 3049 3049 3048 3048 3049 3050 3050 3052 3053 3054 3054 3054 3055 3055 3056 3057 3057 3057 3057 3058 3059 3061 3061 3060 3061 3062 3062 3063 3063 3064 3064 3065 3066 3067 3069 3071 3072 3072 3072 3072 3072 3073 3074 3075 3076 3076 3077 3077 3078 3078 3079 3079 3080
3032 3034 3034 3035 3036 3036 3036 3037 3038 3039 3039 3039 3040 3040 3041 3041 3041 3041 3042 3042 3042 3043 3044 3044 3044 3045 3046 3046 3046 3046 3047 3046 3047 3048 3048 3047 3048 3048 3047 3048 3050 3050 3051 3052 3052 3052 3053 3054 3054 3055 3056 3056 3056 3057 3058 3059 3061 3060 3059 3059 3061 3062 3062 3062 3063 3063 3064 3066 3066 3068 3069 3070 3070 3071 3071 3072 3074 3074 3075 3076 3076 3077 3077 3078 3078 3078 3079 3080
3031 3032 3033 3035 3037 3036 3036 3037 3038 3039 3039 3040 3040 3040 3040 3041 3041 3041 3040 3041 3042 3042 3043 3043 3043 3044 3045 3045 3045 3045 3045 3045 3046 3047 3047 3047 3047 3047 3047 3048 3049 3050 3050 3051 3052 3052 3052 3053 3053 3055 3054 3053 3054 3056 3057 3059 3059 3058 3057 3057 3059 3061 3062 3062 3061 3062 3063 3065 3067 3068 3068 3068 3069 3070 3071 3072 3073 3074 3075 3075 3076 3076 3077 3077 3078 3078 3079 3080
3031 3032 3033 3034 3036 3036 3036 3037 3038 3039 3039 3039 3039 3040 3040 3041 3042 3041 3040 3041 3041 3042 3042 3042 3042 3042 3043 3043 3044 3044 3043 3043 3044 3045 3046 3046 3047 3046 3046 3047 3048 3049 3050 3051 3051 3052 3052 3053 3054 3054 3053 3051 3052 3054 3056 3058 3058 3056 3055 3056 3058 3060 3062 3062 3061 3061 3062 3064 3066 3068 3068 3068 3069 3070 3071 3072 3073 3074 3075 3075 3075 3076 3076 3077 3078 3078 3079 3080